FloripaSat 1
1 44885U 19093G   25198.80636747  .00004221  00000-0  35459-3 0  9995
2 44885  97.8184 286.4932 0012623  79.0011 281.2630 14.98805791302474
RS-44
1 44909U 19096E   25198.47158735  .00000025  00000-0  57911-4 0  9990
2 44909  82.5196 202.1027 0216873 206.7108 152.2692 12.79742062259535
UPMSat 2
1 46276U 20061E   25198.20079932  .00081260  00000-0  57865-3 0  9992
2 46276  97.2411 273.9762 0001896 148.2666 211.8713 15.73599736271372
SALSAT
1 46495U 20068K   25198.46113787  .00005827  00000-0  24941-3 0  9991
2 46495  97.8626 178.2549 0012213  38.9127 321.2985 15.23163522264296
CubeSX-Sirius-HSE
1 47951U 21022V   25157.62701764  .07883385  25648-5  89537-3 0  9993
2 47951  97.4004  72.1904 0010275 223.9924 136.0557 16.36879307233400
CubeSX-HSE
1 47952U 21022W   25157.69972699  .06655353  25454-5  93288-3 0  9992
2 47952  97.3980  72.5414 0010307 219.3637 140.6911 16.34906352233436
GRBAlpha
1 47959U 21022AD  25160.45426279  .07940347  25506-5  90589-3 0  9995
2 47959  97.3899  75.6235 0011032 227.2558 132.7812 16.36806138232695
TUBIN
1 48900U 21059X   25198.84138184  .00050544  00000-0  54745-3 0  9996
2 48900  97.6771  11.2674 0003902 100.2260 259.9438 15.63409456226010
LEDSAT
1 49069U 21073D   25198.78115542  .00073983  00000-0  73407-3 0  9993
2 49069  97.3865 282.0479 0007398 282.6017  77.4415 15.65522306217400
CUTE
1 49263U 21088D   25198.76544864  .00040547  00000-0  76146-3 0  9999
2 49263  97.4493 276.1606 0008935 103.6788 256.5457 15.48457008210333
TeikyoSat 4
1 49396U 21102B   25198.51347712  .00001783  00000-0  12040-3 0  9991
2 49396  97.4083 235.5708 0012610  11.3301 348.8209 15.07769467202261
Z-Sat
1 49399U 21102E   25198.80621295  .00003126  00000-0  17196-3 0  9997
2 49399  97.3779 239.1879 0017080 336.7034  23.3422 15.14667590202766
KOSEN 1
1 49402U 21102H   25198.57717231  .00004857  00000-0  22357-3 0  9999
2 49402  97.3682 242.6713 0014158 309.7059  50.2928 15.20694885203068
HO-113
1 50466U 21131B   25198.81642285  .00000389  00000-0  13530-3 0  9995
2 50466  98.5107 287.9832 0004668  37.3350 322.8162 14.40849377186957
Foresail-1
1 52766U 22057AL  25176.64799660  .13857605  27391-5  25307-3 0  9992
2 52766  97.5832 331.2310 0012137 233.7199 258.4922 16.46795272172486
SNUGLITE 2
1 52899U 22065F   25198.37359981  .00000795  00000-0  16343-3 0  9999
2 52899  98.1734 339.9895 0007509   5.2598 354.8681 14.63281513162012
UmKA 1 (RS40S)
1 57172U 23091G   25198.83559639  .00004521  00000-0  24053-3 0  9999
2 57172  97.5556 254.0220 0013977 195.8635 164.2162 15.15684499113278
CubeBel-2 (EU11S)
1 57175U 23091K   25198.82841161  .00007625  00000-0  35787-3 0  9999
2 57175  97.5555 255.3997 0011610 201.3299 158.7453 15.19875071113369
VERONIKA
1 58261U 23174F   25198.73915157  .00284135  00000-0  12744-2 0  9995
2 58261  97.4072 287.5428 0007253 237.6821 122.3746 15.83379298 94693
ENSO
1 58470U 23185J   25198.85960508  .00056608  00000-0  70981-3 0  9992
2 58470  97.3704 275.3068 0004853 288.3198  71.7531 15.59563721 90991
EIRSAT-1
1 58472U 23185L   25198.85071201  .00157291  00000-0  99761-3 0  9994
2 58472  97.3638 277.9858 0004751 259.4585 100.6145 15.76051402 91171
SONATE-2
1 59112U 24043Q   25198.33784693  .00013877  00000-0  38792-3 0  9997
2 59112  97.5177 330.3100 0010153 345.7328  14.3627 15.36754189 76137
MO-122
1 60209U 24125G   25198.14760995  .00016181  00000-0  44366-3 0  9990
2 60209  97.2762  49.3663 0018113   8.3117 351.8424 15.37195890 57723
GRBBeta
1 60237U 24128C   25198.72971381  .00002789  00000-0  21597-3 0  9991
2 60237  61.9922 306.5136 0054528  65.7467 294.9307 15.02898742 55934
Curium One
1 60242U 24128H   25198.50169087  .00005450  00000-0  37878-3 0  9992
2 60242  61.9820 305.0279 0054419  61.9245 298.7334 15.05562923 55945
ROBUSTA-3A
1 60243U 24128J   25198.71557346  .00005162  00000-0  36458-3 0  9998
2 60243  61.9891 305.2355 0053476  59.6890 300.9477 15.05089715 55962
CatSat
1 60246U 24125J   25198.14993229  .00009385  00000-0  30818-3 0  9994
2 60246  97.2567  48.1471 0040599 322.1376  37.7012 15.30980645 55733
HYPERVIEW-1G (RS66S)
1 61772U 24199AP  25198.84866226  .00019055  00000-0  53034-3 0  9993
2 61772  97.3486  67.6508 0014727  61.1489 299.1231 15.36755144 82833
AO-123
1 61781U 24199AY  25198.87576783  .00005327  00000-0  19239-3 0  9998
2 61781  97.3503  66.1365 0017297  65.3387 294.9652 15.28769119 82733
ZIMSAT 2
1 61783U 24199BA  25198.82452776  .00035732  00000-0  80779-3 0  9990
2 61783  97.3458  68.5565 0014099  58.9408 301.3222 15.42980847 86044
HADES-R (SO-124)
1 62690U 25009CK  25198.20999501  .00033932  00000-0  11217-2 0  9993
2 62690  97.4075 278.9247 0001148 322.8507  37.2655 15.31286318 27901
HYDRA-T
1 62692U 25009CM  25198.44987709  .00034793  00000-0  11384-2 0  9999
2 62692  97.4076 279.2139 0001013 304.3762  55.7383 15.31612614 27946
JINJUSat 1B
1 63210U 25052A   25198.22681821  .00008996  00000-0  40506-3 0  9991
2 63210  97.4369  91.8817 0004405 163.8817 196.2560 15.21295319 18975
NUSHSAT 1
1 63211U 25052B   25198.28098982  .00009863  00000-0  43988-3 0  9999
2 63211  97.4358  91.9463 0004239 168.1335 192.0001 15.21594542 18985
TEVEL2-4
1 63213U 25052D   25198.23651679  .00010004  00000-0  45041-3 0  9995
2 63213  97.4275  91.7203 0002891 177.4691 182.6559 15.21269219 18977
TEVEL2-5
1 63214U 25052E   25198.23763071  .00009978  00000-0  44957-3 0  9999
2 63214  97.4275  91.7192 0002914 176.9936 183.1318 15.21245158 18972
TEVEL2-6
1 63215U 25052F   25198.24076781  .00010126  00000-0  45673-3 0  9999
2 63215  97.4275  91.7168 0002889 179.1301 180.9940 15.21204367 18971
TEVEL2-1
1 63217U 25052H   25198.52047262  .00009809  00000-0  44542-3 0  9994
2 63217  97.4251  91.9144 0002558 195.4468 164.6689 15.20981175 19014
TEVEL2-2
1 63218U 25052J   25198.52073978  .00009773  00000-0  44379-3 0  9996
2 63218  97.4252  91.9154 0002583 197.2998 162.8150 15.20983709 19011
TEVEL2-3
1 63219U 25052K   25198.19206570  .00009863  00000-0  44799-3 0  9992
2 63219  97.4252  91.5903 0002530 197.8572 162.2575 15.20970988 18969
TEVEL2-8
1 63237U 25052AD  25198.15584700  .00008654  00000-0  40762-3 0  9995
2 63237  97.4315  91.4368 0006315 235.1692 124.8949 15.19741134 18941
TEVEL2-9
1 63238U 25052AE  25198.22560562  .00008754  00000-0  41309-3 0  9993
2 63238  97.4319  91.4995 0006418 235.1743 124.8888 15.19674377 18950
TEVEL2-7
1 63239U 25052AF  25198.22838923  .00008836  00000-0  41733-3 0  9995
2 63239  97.4317  91.4942 0006424 235.6147 124.4480 15.19642047 18954
HYDRA-W
1 63490U 25052BL  25198.49544898  .00021919  00000-0  88344-3 0  9994
2 63490  97.4263  92.2743 0009651 229.8983 130.1410 15.24808764 19032
HADES-ICM (SO-125)
1 63492U 25052BN  25198.52217099  .00021739  00000-0  88992-3 0  9999
2 63492  97.4269  92.2477 0009906 235.3632 124.6672 15.24284734 19033
